Location: General Nathan Twining Observatory
(34.5931°N, 106.8201°W)
Time: 10:52:23
(UTC-07:00)

Daily predictions for brighter satellites

Satellite Brightness Start Highest point End
(mag) Time Altitude Azimuth Time Altitude Azimuth Time Altitude Azimuth
SL-27 R/B 2.6 17:16:46 10° N 17:20:21 53° ENE 17:23:52 10° SSE
Tiangong 1 1.0 17:18:01 10° SW 17:21:03 76° SSE 17:24:04 10° ENE
YAOGAN 1 3.0 17:17:13 10° SE 17:21:16 41° ENE 17:25:21 10° N
Cosmos 2251 Rocket 3.8 17:16:37 10° N 17:21:47 48° ENE 17:26:53 10° SE
Cosmos 2278 Rocket 2.2 17:23:34 10° SSW 17:29:10 75° ESE 17:34:50 10° NNE
CZ-4 R/B 1.6 17:33:56 10° S 17:38:07 81° WSW 17:42:17 10° NNW
AQUARIUS 4.1 17:36:29 10° SSE 17:40:58 80° ENE 17:45:28 10° N
Meteor 2-19 Rocket 4.5 17:35:03 10° N 17:41:08 90° SE 17:47:11 10° S
Genesis I 4.5 17:39:15 10° N 17:42:18 21° NE 17:45:19 10° ESE
MSX 3.9 17:37:01 10° SSE 17:42:34 54° ENE 17:48:10 10° N
COSMOS 2406 4.5 17:38:34 10° NW 17:44:01 46° WSW 17:49:28 10° S
Cosmos 1455 Rocket 3.0 17:40:13 10° N 17:44:38 76° E 17:49:03 10° S
Cosmos 1975 3.1 17:41:56 10° N 17:45:51 46° E 17:49:44 10° SSE
SKYMED 2 4.0 17:42:58 10° NNE 17:47:05 40° E 17:51:09 10° S
SJ-12 4.2 17:43:24 10° S 17:47:28 74° WSW 17:51:35 10° NNW
Okean 1-7 Rocket 4.4 17:46:29 10° SSE 17:50:26 30° E 17:54:22 10° NNE
Delta 2 Rocket 3.3 17:47:26 10° WSW 17:51:06 68° SSE 17:54:13 17° E
SL-8 Rocket 4.4 17:45:12 10° NNW 17:51:18 66° W 17:57:22 10° S
BREEZE-M DEB (TANK) 3.7 17:46:41 10° NW 17:52:10 64° SW 17:55:44 10° SE
NOSS 2-1 (E) 4.1 17:50:04 10° S 17:53:32 32° ESE 17:55:54 18° ENE
Cosmos 1484 Rocket 3.1 17:50:39 10° SE 17:54:09 38° ENE 17:57:38 10° N
Cosmos 1743 3.9 17:52:37 10° NNE 17:55:38 21° ENE 17:58:37 10° SE
Meteor 1-12 Rocket 4.3 17:50:53 10° N 17:56:44 83° E 18:02:39 10° S
Cosmos 1833 Rocket 3.7 17:52:52 10° N 17:57:19 23° ENE 18:01:45 10° ESE
Cosmos 2082 Rocket 3.0 17:53:16 10° N 17:58:06 28° ENE 18:02:56 10° ESE
SL-24 R/B - RUBIN 2 4.5 17:55:28 10° SSW 18:01:37 86° ESE 18:08:19 10° NNE
Cosmos 1500 3.2 17:58:52 10° N 18:02:40 59° E 18:06:28 10° SSE
OAO 1 4.5 17:57:37 10° W 18:03:06 85° N 18:07:06 19° E
Cosmos 2366 rocket 4.3 17:56:54 10° N 18:03:14 75° W 18:09:29 10° S
OTV 4 2.9 18:03:35 10° W 18:05:55 21° SSW 18:08:16 10° SSE
Meteor 1-13 Rocket 4.3 18:00:47 10° S 18:06:17 60° E 18:11:58 10° NNE
Cosmos 1809 Rocket 4.4 18:00:50 10° N 18:06:56 64° E 18:12:58 10° SSE
Meteor 1-28 Rocket 3.7 18:05:42 20° NE 18:07:54 37° E 18:11:25 10° SSE
GEOS 3 Rocket 4.3 18:11:18 21° E 18:13:38 31° NE 18:18:04 10° NNW
Cosmos 1241 Rocket 4.5 18:09:07 10° NNW 18:15:46 79° ENE 18:22:19 10° SSE
COSMOS 2487 2.5 18:12:45 10° N 18:16:18 56° ENE 18:19:49 10° SSE
TIMED 4.4 18:12:16 10° SSW 18:16:38 89° ESE 18:20:21 14° NNE
Cosmos 1371 Rocket 4.2 18:18:21 10° S 18:23:30 51° ESE 18:26:24 25° NE
Timation 2 Rocket 4.2 18:20:11 10° NNW 18:26:58 60° ENE 18:33:44 10° SE
Meteor 2-4 Rocket 3.7 18:22:24 10° SSE 18:27:36 50° E 18:30:53 22° NNE
COSMO-SKYMED 1 3.4 18:30:53 10° N 18:35:06 51° WNW 18:39:17 10° SSW
Meteor 2-9 Rocket 4.4 18:30:31 10° N 18:35:35 39° ENE 18:40:32 10° SE
BREEZE M DEB (TANK) 3.5 18:27:06 10° WSW 18:35:46 45° NW 18:37:18 29° NNE
Cosmos 1821 Rocket 3.9 18:31:44 10° N 18:37:46 61° E 18:43:45 10° SSE
Timation 1 Rocket 4.4 18:32:30 10° SSW 18:38:26 75° WNW 18:43:07 17° NNE
ATLAS 2AS CENTAUR R/B 4.0 18:34:08 10° NW 18:41:38 47° WSW 18:48:33 10° S
Tiangong 1 3.6 18:54:57 10° WNW 18:56:08 17° NW 18:56:08 17° NW
Cosmos 1025 Rocket 3.3 18:53:12 10° SSW 18:57:32 68° W 18:58:55 41° NNW
CZ-3B DEB 4.5 19:08:18 10° WNW 19:12:56 23° N 19:16:19 20° NNE
Cosmos 1727 Rocket 4.1 19:12:47 10° S 19:17:47 57° SSE 19:17:47 57° SSE
ATLAS 3B CENTAUR R/B 3.3 19:13:52 10° W 19:29:42 56° SSW 19:31:11 49° SSE
FALCON 9 R/B 2.8 19:23:02 10° W 19:40:08 90° NNE 19:40:12 89° E
Cosmos 1833 Rocket 3.7 19:36:05 10° NW 19:41:22 42° WSW 19:44:20 23° SSW
Cosmos 2082 Rocket 3.7 19:37:05 10° NW 19:42:09 35° WSW 19:47:14 10° SSW
